Regional Weather Roundup
Issued by NWS

Home | Current Version | Previous Version | Text Only | Print | Product List | Glossary On
Versions: 1 2 3 4 5 6 7 8 9 10 11 12 13 14 15 16 17 18 19 20 21 22 23 24 25 26 27 28 29 30 31 32 33 34 35 36 37 38 39 40 41 42 43 44 45 46 47 48 49 50
000
ASUS44 KOUN 201900
RWROK

WEATHER ROUNDUP FOR OKLAHOMA
NATIONAL WEATHER SERVICE NORMAN OK
200 PM CDT SUN APR 20 2014

NOTE: "FAIR" INDICATES FEW OR NO CLOUDS BELOW 12,000 FEET WITH NO
      SIGNIFICANT WEATHER AND/OR OBSTRUCTIONS TO VISIBILITY.

OKZ001>007-009>012-014-015-017-202000-
NORTHWEST OKLAHOMA AND THE PANHANDLE

CITY           SKY/WX    TMP DP  RH WIND       PRES   REMARKS
GAGE           MOSUNNY   79  54  41 S20G25    29.99F
ENID/VANCE AFB CLOUDY    70  63  77 S14       30.05F
ENID/WOODRING  CLOUDY    72  59  64 SE12      30.05F
$$

OKZ016-021>023-033>039-044-045-202000-
SOUTHWEST OKLAHOMA

CITY           SKY/WX    TMP DP  RH WIND       PRES   REMARKS
LAWTON/REGL    CLOUDY    67  62  84 SE14      30.07F
LAWTON/FT SILL PTSUNNY   67  61  81 S12       30.06F
FREDERICK      MOSUNNY   69  61  75 SE14      30.02F
CLINTON        MOSUNNY   68  59  73 S16       30.06F
HOBART         LGT RAIN  67  61  81 S12       30.05F
ALTUS AFB      PTSUNNY   69  63  81 SE10      30.04F
$$

OKZ018>020-024>031-202000-
CENTRAL OKLAHOMA

CITY           SKY/WX    TMP DP  RH WIND       PRES   REMARKS
OKLAHOMA CITY  CLOUDY    72  56  57 S21       30.07F
OKC/WILEY POST CLOUDY    74  54  49 S16       30.07F
OKC/TINKER AFB CLOUDY    73  57  58 S17       30.08F
STILLWATER     CLOUDY    73  54  51 S10       30.07F
GUTHRIE        CLOUDY    73  55  53 SW10      30.07F
$$

OKZ008-013-054>072-202000-
NORTHEAST OKLAHOMA

CITY           SKY/WX    TMP DP  RH WIND       PRES   REMARKS
TULSA          CLOUDY    74  56  53 S15       30.09F
TULSA/JONES    CLOUDY    74  54  49 S8        30.10F
PONCA CITY     CLOUDY    72  55  55 S6        30.07F
BARTLESVILLE   CLOUDY    73  53  49 S13       30.10F
MUSKOGEE       CLOUDY    77  55  46 S15       30.12F
$$

OKZ032-040>043-046>053-073>077-202000-
SOUTH CENTRAL/SOUTHEAST OKLAHOMA

CITY           SKY/WX    TMP DP  RH WIND       PRES   REMARKS
MCALESTER      CLOUDY    74  56  53 S9        30.12F
$$




USA.gov is the U.S. government's official web portal to all federal, state and local government web resources and services.